Simultaneous Nadir Overpasses (SNOs) Predictions

Prediction of SNOs between NPP and PACE Satellite Orbit:

Table of predicted SNOs for the next 14.0 days since TLE Epoch: 7/27/2024
Index Date (NPP) Time (NPP) Lat,Lon (NPP) SZA (NPP ) Date (PACE) Time (PACE) Lat,Lon (PACE) SZA (PACE ) Distance(km) Time Diff (sec)
1 07/28/2024 21:24:34 -79.97, 0.41 116.27 07/28/2024 21:25:30 -79.97, 0.31 116.29 2.06 56
2 07/28/2024 22:15:15 79.84, 169.06 63.48 07/28/2024 22:14:36 79.83, 169.09 63.49 0.64 39
3 07/31/2024 01:51:01 -79.95, -66.01 115.79 07/31/2024 01:51:22 -79.95, -65.99 115.80 0.46 21
4 07/31/2024 02:41:31 79.47, 105.68 63.35 07/31/2024 02:40:18 79.43, 105.44 63.39 6.10 73
5 08/02/2024 06:17:26 -79.88,-131.89 115.38 08/02/2024 06:17:12 -79.88,-131.89 115.37 0.25 14
6 08/04/2024 09:53:12 79.97, -6.75 65.36 08/04/2024 09:53:57 79.97, -6.77 65.34 0.42 45
7 08/04/2024 10:43:52 -79.83, 161.90 114.89 08/04/2024 10:43:02 -79.83, 162.03 114.89 2.60 50
8 08/06/2024 14:19:37 79.91, -72.71 65.82 08/06/2024 14:19:46 79.91, -72.74 65.82 0.51 9
9 08/08/2024 17:55:23 -80.03, 52.15 113.36 08/08/2024 17:56:30 -80.03, 52.14 113.39 0.08 67



Historial Predications of SNOs between NPP and PACE
